星链-1785 (STARLINK-1785 )

导读

STARLINK-1785是美国太空探索技术公司 SpaceX 星链星座中的一颗卫星,于北京时间2020年11月25日发射入轨,属于星链低轨互联网星座组网卫星,主要承担为全球范围内用户提供高速宽带互联网接入服务的任务,星链星座依托大量低轨卫星构建覆盖全球的卫星通信网络。

基本信息
目录编号:
47124
目录名称:
STARLINK-1785
国际标识:
2020-088C
轨道中心:
EARTH
卫星名称:
星链-1785
卫星全名:
星链-1785 (STARLINK-1785 )
卫星状态:
已陨落 最后检测时间 2025-02-08
发射日期:
2020-11-25 UTC
国别 :
美国 (US)
星等 :
--
轨道信息
数据来源 国际轨道数据
星历时间: 2025-02-09T03:48:29+0800
轨道信息已过期495天
半长轴: 6545.091km
偏心率: 0.0006625
轨道倾角: 53.026°
近地点辐角 281.779°
升交点赤经 238.723°
平近点角 170.105°
近地点: 162.619km
远地点: 171.293km
周期: 87.828分钟
每日圈数: 16.395675
详细信息
固有亮度:
5
最大亮度:
2.5
卫星平台:
Starlink V1.0
覆盖范围:
全球
运营商:
太空探索技术公司
运营商所在国:
美国
制造商(研发单位):
太空探索技术公司
制造商所在国:
美国
使用方式:
暂无
卫星简介
星链(Starlink)计划是由太空探索技术公司(SpaceX)提出的一个巨型低轨卫星互联网星座项目,计划在2019年至2024年间在太空搭建由约1.2万颗卫星组成的“星链”网络,其中1584颗将部署在地球上空550千米处的近地轨道,并从2020年开始工作。该卫星仍在工作。